$Date,$Time,DM0201B,DM0203B,DM0205B,DM0207B,DM0209B
04/12/99,00:00:01,0,0,0,0,0
04/12/99,00:05:01,6,25,-25,30,964
04/12/99,00:10:01,6,25,-25,30,964
04/12/99,00:15:01,6,312,-25,30,964
04/12/99,00:20:01,6,312,-25,30,964
04/12/99,00:25:01,6,312,-25,32,964
04/12/99,00:30:01,6,312,-25,32,964
04/12/99,00:35:01,6,312,-25,32,964
04/12/99,00:40:01,6,312,-25,32,964
04/12/99,00:45:01,6,312,-25,34,964
04/12/99,00:50:01,6,312,-25,36,964
04/12/99,00:55:01,6,301,-25,38,964
04/12/99,01:00:01,6,301,-25,40,964
04/12/99,01:05:01,6,301,-25,40,964
04/12/99,01:10:01,6,301,-25,40,964
04/12/99,01:15:01,6,301,-25,40,964
04/12/99,01:20:01,6,301,-25,42,964
04/12/99,01:25:01,6,301,-25,44,964
04/12/99,01:30:01,6,301,-25,44,964
04/12/99,01:35:01,6,301,-25,44,964
04/12/99,01:40:01,6,301,-25,46,964
04/12/99,01:45:01,6,301,-25,46,964
04/12/99,01:50:01,6,301,-25,50,964
04/12/99,01:55:01,6,301,-25,52,964
04/12/99,02:00:01,6,301,-25,52,964
04/12/99,02:05:01,6,301,-25,54,964
04/12/99,02:10:01,6,301,-23,50,964
04/12/99,02:15:01,6,301,-23,50,964
04/12/99,02:20:01,6,301,-23,50,964
04/12/99,02:25:01,6,301,-21,50,964
04/12/99,02:30:01,6,301,-21,48,964
04/12/99,02:35:01,6,301,-21,48,964
04/12/99,02:40:01,6,301,-21,42,964
04/12/99,02:45:01,6,301,-21,40,962
04/12/99,02:50:01,6,301,-21,44,962
04/12/99,02:55:01,6,301,-21,44,962
04/12/99,03:00:01,6,301,-19,44,962
04/12/99,03:05:01,6,301,-19,40,962
04/12/99,03:10:01,6,301,-19,38,962
04/12/99,03:15:01,6,301,-19,38,962
04/12/99,03:20:01,18,348,-19,34,962
04/12/99,03:25:01,28,1,-19,32,962
04/12/99,03:30:01,8,1,-19,30,962
04/12/99,03:35:01,8,1,-19,28,962
04/12/99,03:40:01,8,1,-19,24,962
04/12/99,03:45:01,18,1,-19,22,962
04/12/99,03:50:01,18,1,-19,20,962
04/12/99,03:55:01,18,1,-21,18,962
04/12/99,04:00:01,7,1,-21,14,962
04/12/99,04:05:01,26,183,-21,14,962
04/12/99,04:10:01,39,183,-21,14,962
04/12/99,04:15:01,39,183,-21,10,962
04/12/99,04:20:01,39,183,-21,6,962
04/12/99,04:25:01,49,183,-23,6,962
04/12/99,04:30:01,29,183,-23,6,962
04/12/99,04:35:01,8,183,-23,4,962
04/12/99,04:40:01,8,183,-23,4,962
04/12/99,04:45:01,8,183,-23,2,962
04/12/99,04:50:01,47,173,-23,2,962
04/12/99,04:55:01,57,173,-25,2,962
04/12/99,05:00:01,73,184,-25,2,962
04/12/99,05:05:01,91,184,-25,2,962
04/12/99,05:10:01,66,174,-25,0,962
04/12/99,05:15:01,67,174,-25,0,962
04/12/99,05:20:01,69,189,-25,0,962
04/12/99,05:25:01,107,164,-25,0,962
04/12/99,05:30:01,90,164,-25,0,962
04/12/99,05:35:01,111,152,-25,0,962
04/12/99,05:40:01,105,154,-25,0,962
04/12/99,05:45:01,122,155,-25,0,962
04/12/99,05:50:01,120,155,-25,0,962
04/12/99,05:55:01,173,165,-25,0,962
04/12/99,06:00:01,182,162,-25,0,962
04/12/99,06:05:01,119,165,-25,0,962
04/12/99,06:10:01,127,165,-25,0,962
04/12/99,06:15:01,123,157,-25,0,962
04/12/99,06:20:01,146,168,-25,0,962
04/12/99,06:25:01,173,168,-25,0,962
04/12/99,06:30:01,167,158,-27,0,962
04/12/99,06:35:01,158,168,-27,0,962
04/12/99,06:40:01,137,168,-27,0,962
04/12/99,06:45:01,121,168,-27,0,962
04/12/99,06:50:01,142,167,-27,0,962
04/12/99,06:55:01,129,177,-27,0,962
04/12/99,07:00:01,134,177,-27,0,962
04/12/99,07:05:01,121,177,-27,0,962
04/12/99,07:10:01,131,177,-27,0,962
04/12/99,07:15:01,109,177,-27,0,962
04/12/99,07:20:01,109,177,-27,0,962
04/12/99,07:25:01,119,177,-27,0,962
04/12/99,07:30:01,119,167,-27,0,962
04/12/99,07:35:01,118,167,-27,0,962
04/12/99,07:40:01,107,167,-27,0,962
04/12/99,07:45:01,118,177,-27,0,962
04/12/99,07:50:01,108,177,-27,0,962
04/12/99,07:55:01,98,177,-27,0,962
04/12/99,08:00:01,87,177,-27,0,962
04/12/99,08:05:01,75,177,-27,0,962
04/12/99,08:10:01,64,177,-27,0,962
04/12/99,08:15:01,53,177,-27,0,962
04/12/99,08:20:01,43,167,-27,0,962
04/12/99,08:25:01,49,167,-27,0,962
04/12/99,08:30:01,24,178,-27,0,962
04/12/99,08:35:01,24,178,-27,0,962
04/12/99,08:40:01,21,192,-27,0,962
04/12/99,08:45:01,7,221,-27,0,962
04/12/99,08:50:01,15,220,-27,0,962
04/12/99,08:55:01,8,208,-27,0,962
04/12/99,09:00:01,4,208,-27,0,962
04/12/99,09:05:01,4,183,-27,0,962
04/12/99,09:10:01,4,124,-27,0,962
04/12/99,09:15:01,4,139,-27,0,962
04/12/99,09:20:01,4,117,-27,0,962
04/12/99,09:25:01,3,62,-27,0,962
04/12/99,09:30:01,11,62,-27,0,962
04/12/99,09:35:01,18,39,-27,0,962
04/12/99,09:40:01,28,39,-27,0,962
04/12/99,09:45:01,49,39,-27,0,962
04/12/99,09:50:01,59,29,-27,0,962
04/12/99,09:55:01,59,29,-27,0,962
04/12/99,10:00:01,59,29,-27,0,962
04/12/99,10:05:01,59,29,-27,0,962
04/12/99,10:10:01,69,29,-27,0,962
04/12/99,10:15:01,68,29,-27,0,962
04/12/99,10:20:01,68,29,-27,0,962
04/12/99,10:25:01,53,29,-27,0,962
04/12/99,10:30:01,68,18,-27,0,962
04/12/99,10:35:01,66,18,-27,0,962
04/12/99,10:40:01,54,6,-27,0,962
04/12/99,10:45:01,54,6,-27,0,962
04/12/99,10:50:01,55,28,-27,0,962
04/12/99,10:55:01,37,32,-27,0,962
04/12/99,11:00:01,34,15,-27,0,962
04/12/99,11:05:01,24,5,-27,0,962
04/12/99,11:10:01,24,5,-27,0,962
04/12/99,11:15:01,24,5,-27,0,962
04/12/99,11:20:01,34,5,-27,0,962
04/12/99,11:25:01,14,5,-27,0,962
04/12/99,11:30:01,15,5,-27,0,962
04/12/99,11:35:01,25,5,-27,0,962
04/12/99,11:40:01,15,5,-27,0,962
04/12/99,11:45:01,3,5,-27,0,962
04/12/99,11:50:01,3,5,-27,0,962
04/12/99,11:55:01,3,5,-27,0,962
04/12/99,12:00:01,3,5,-27,0,962
04/12/99,12:05:01,3,5,-27,0,962
04/12/99,12:10:01,3,5,-27,0,962
04/12/99,12:15:01,3,5,-27,0,962
04/12/99,12:20:01,3,5,-27,0,962
04/12/99,12:25:01,3,5,-27,0,962
04/12/99,12:30:01,3,5,-27,0,962
04/12/99,12:35:01,13,5,-27,0,962
04/12/99,12:40:01,13,5,-27,0,962
04/12/99,12:45:01,13,5,-27,0,962
04/12/99,12:50:01,15,5,-27,0,962
04/12/99,12:55:01,15,5,-27,0,962
04/12/99,13:00:01,15,5,-27,0,962
04/12/99,13:05:01,5,5,-27,0,962
04/12/99,13:10:01,5,70,-27,0,962
04/12/99,13:15:01,5,70,-27,0,962
04/12/99,13:20:01,5,70,-27,0,962
04/12/99,13:25:01,5,70,-27,0,962
04/12/99,13:30:01,5,70,-27,0,962
04/12/99,13:35:01,8,152,-27,0,962
04/12/99,13:40:01,8,152,-27,0,962
04/12/99,13:45:01,8,152,-27,0,962
04/12/99,13:50:01,8,152,-27,0,962
04/12/99,13:55:01,8,152,-27,0,962
04/12/99,14:00:01,8,163,-27,0,962
04/12/99,14:05:01,8,226,-27,0,962
04/12/99,14:10:01,8,237,-27,0,962
04/12/99,14:15:01,19,248,-27,0,962
04/12/99,14:20:01,19,248,-27,0,962
04/12/99,14:25:01,29,258,-27,0,962
04/12/99,14:30:01,40,258,-27,0,962
04/12/99,14:35:01,40,244,-27,0,962
04/12/99,14:40:01,55,232,-27,0,962
04/12/99,14:45:01,55,232,-27,0,962
04/12/99,14:50:01,45,222,-27,0,962
04/12/99,14:55:01,55,219,-27,0,962
04/12/99,15:00:01,43,219,-27,0,962
04/12/99,15:05:01,58,205,-27,0,962
04/12/99,15:10:01,40,208,-27,0,962
04/12/99,15:15:01,17,218,-27,0,962
04/12/99,15:20:01,2,218,-27,0,962
04/12/99,15:25:01,2,218,-27,0,962
04/12/99,15:30:01,2,218,-27,0,962
04/12/99,15:35:01,3,198,-27,0,962
04/12/99,15:40:01,4,198,-27,0,962
04/12/99,15:45:01,4,198,-27,0,962
04/12/99,15:50:01,15,188,-27,0,962
04/12/99,15:55:01,26,188,-27,0,962
04/12/99,16:00:01,16,188,-27,0,962
04/12/99,16:05:01,5,188,-27,0,962
04/12/99,16:10:01,5,188,-27,0,962
04/12/99,16:15:01,4,111,-27,0,962
04/12/99,16:20:01,4,146,-27,0,962
04/12/99,16:25:01,4,146,-27,0,962
04/12/99,16:30:01,4,122,-27,0,962
04/12/99,16:35:01,4,122,-27,0,962
04/12/99,16:40:01,15,102,-27,0,962
04/12/99,16:45:01,16,35,-27,0,962
04/12/99,16:50:01,13,25,-27,0,962
04/12/99,16:55:01,16,25,-27,0,962
04/12/99,17:00:01,16,25,-27,0,962
04/12/99,17:05:01,16,15,-27,0,962
04/12/99,17:10:01,5,15,-27,0,962
04/12/99,17:15:01,5,15,-27,0,962
04/12/99,17:20:01,5,15,-27,0,962
04/12/99,17:25:01,5,15,-27,0,962
04/12/99,17:30:01,5,15,-27,0,962
04/12/99,17:35:01,5,15,-27,0,962
04/12/99,17:40:01,5,15,-27,0,962
04/12/99,17:45:01,5,15,-29,0,962
04/12/99,17:50:01,5,15,-29,0,962
04/12/99,17:55:01,15,15,-29,0,962
04/12/99,18:00:01,2,15,-29,0,962
04/12/99,18:05:01,2,15,-29,0,962
04/12/99,18:10:01,2,15,-29,0,962
04/12/99,18:15:01,2,15,-29,0,962
04/12/99,18:20:01,2,15,-29,0,962
04/12/99,18:25:01,2,5,-29,0,962
04/12/99,18:30:01,2,5,-29,0,962
04/12/99,18:35:01,2,360,-29,0,962
04/12/99,18:40:01,2,322,-29,0,962
04/12/99,18:45:01,2,312,-29,0,962
04/12/99,18:50:01,12,283,-29,0,962
04/12/99,18:55:01,12,283,-29,0,962
04/12/99,19:00:01,12,233,-29,0,962
04/12/99,19:05:01,12,233,-29,0,962
04/12/99,19:10:01,27,213,-29,0,962
04/12/99,19:15:01,38,192,-29,0,962
04/12/99,19:20:01,24,192,-29,0,962
04/12/99,19:25:01,42,170,-29,0,962
04/12/99,19:30:01,29,180,-29,0,962
04/12/99,19:35:01,29,169,-29,0,962
04/12/99,19:40:01,39,169,-29,0,962
04/12/99,19:45:01,53,169,-29,0,962
04/12/99,19:50:01,53,169,-29,0,962
04/12/99,19:55:01,42,179,-29,0,962
04/12/99,20:00:01,41,179,-29,0,962
04/12/99,20:05:01,32,169,-29,0,962
04/12/99,20:10:01,22,149,-29,0,962
04/12/99,20:15:01,35,163,-29,0,962
04/12/99,20:20:01,55,163,-29,0,962
04/12/99,20:25:01,45,173,-29,0,962
04/12/99,20:30:01,43,162,-29,0,962
04/12/99,20:35:01,15,105,-29,0,962
04/12/99,20:40:01,4,105,-29,0,962
04/12/99,20:45:01,25,53,-29,0,962
04/12/99,20:50:01,18,103,-29,0,962
04/12/99,20:55:01,64,95,-29,0,962
04/12/99,21:00:01,72,112,-29,0,962
04/12/99,21:05:01,53,99,-29,0,962
04/12/99,21:10:01,61,85,-29,0,962
04/12/99,21:15:01,47,110,-29,0,962
04/12/99,21:20:01,22,99,-29,0,962
04/12/99,21:25:01,19,137,-29,2,962
04/12/99,21:30:01,8,170,-29,2,962
04/12/99,21:35:01,24,205,-29,2,962
04/12/99,21:40:01,34,205,-29,2,962
04/12/99,21:45:01,24,216,-29,2,962
04/12/99,21:50:01,25,243,-29,4,962
04/12/99,21:55:01,15,231,-29,4,962
04/12/99,22:00:01,3,269,-29,4,962
04/12/99,22:05:01,13,280,-29,4,962
04/12/99,22:10:01,3,280,-29,4,962
04/12/99,22:15:01,26,280,-29,6,962
04/12/99,22:20:01,26,269,-29,6,962
04/12/99,22:25:01,37,259,-29,8,962
04/12/99,22:30:01,23,282,-29,8,962
04/12/99,22:35:01,24,282,-29,10,962
04/12/99,22:40:01,35,282,-29,10,962
04/12/99,22:45:01,27,278,-29,12,962
04/12/99,22:50:01,38,278,-29,14,962
04/12/99,22:55:01,38,289,-29,16,962
04/12/99,23:00:01,38,289,-29,16,962
04/12/99,23:05:01,28,278,-29,18,962
04/12/99,23:10:01,39,288,-27,20,962
04/12/99,23:15:01,39,288,-27,22,962
04/12/99,23:20:01,29,288,-27,26,962
04/12/99,23:25:01,19,288,-27,26,962
04/12/99,23:30:01,19,288,-27,28,962
04/12/99,23:35:01,19,288,-27,28,962
04/12/99,23:40:01,19,288,-27,24,962
04/12/99,23:45:01,9,288,-27,28,962
04/12/99,23:50:01,9,288,-27,32,962
04/12/99,23:55:01,9,288,-27,34,962
04/13/99,00:00:01,20,244,-27,36,962
